NOVA 1

Last updated on Fri Jun 19 2026 20:04:44 GMT+0000 (Coordinated Universal Time)

1 12458U 81044A 26170.56131888 .00000069 00000+0 14280-3 0 9995 2 12458 89.8484 88.6030 0012885 309.8861 224.0149 13.23300623176837
UTC large
Height (km)
Speed (km/s)
/
Latitude / Longitude
Inclination (degrees)
Orbital Period (minutes)
Azimuth
Elevation
Range (km)
Doppler Factor

Next 0 passes for location: London (51.5072 / 0.1276)

Sorry there are no passes over London.
NOVA 1